Weather History for PHOG - September, 2012

Change the Weather History Date:

Wednesday, September 5, 2012

  Actual Average Record
Temperature  
Mean Temperature 80 °F 80 °F  
Max Temperature 86 °F 88 °F 92 °F (1953)
Min Temperature 73 °F 71 °F 19 °F (2012)
Degree Days  
Heating Degree Days 0 0  
Month to date heating degree days 0 0  
Since 1 July heating degree days 0 0  
Cooling Degree Days 15 14  
Month to date cooling degree days 74 72  
Year to date cooling degree days 2620 2614  
Growing Degree Days 29 (Base 50)    
Moisture  
Dew Point 66 °F    
Average Humidity 68    
Maximum Humidity 90    
Minimum Humidity 45    
Precipitation  
Precipitation T in 0.02 in 0.03 in (1969)
Month to date precipitation 0.02 0.06  
Year to date precipitation 4.35 10.76  
Snow  
Snow 0.00 in - - ()
Month to date snowfall 0.0  
Since 1 July snowfall 0.0  
Since 1 September snowfall 0.0  
Snow Depth 0.00 in    
Sea Level Pressure  
Sea Level Pressure 30.07 in    
Wind  
Wind Speed 16 mph (ENE)    
Max Wind Speed 28 mph    
Max Gust Speed 36 mph    
Visibility 10 miles    
Events      
T = Trace of Precipitation, MM = Missing Value Source: NWS Daily Summary

Daily Weather History Graph

Daily Weather History Graph

Search for Another Location

Airport or City:

Trip Planner

Search our weather history database for the weather conditions in past years. The results will help you decide how hot, cold, wet, or windy it might be!

Date:

Astronomy

Sep. 05, 2012 Rise Set
Actual Time 6:10 AM HST 6:37 PM HST
Civil Twilight 5:48 AM HST 6:59 PM HST
Nautical Twilight 5:22 AM HST 7:25 PM HST
Astronomical Twilight 4:55 AM HST 7:52 PM HST
Moon 10:03 PM HST (9/5) 10:37 AM HST (9/5)
Length of Visible Light 13h 11m
Length of Day
12h 26m
Waning Gibbous, 74% of the Moon is Illuminated
Sep 5
Waning Gibbous
Sep 8
Last Quarter
Sep 15
New
Sep 22
First Quarter
Sep 29
Full

Hourly Weather History & Observations

Time (HST) Temp. Heat Index Dew Point Humidity Pressure Visibility Wind Dir Wind Speed Gust Speed Precip Events Conditions
12:54 AM 73.9 °F - 69.1 °F 85% 30.09 in 10.0 mi NE 10.4 mph - N/A   Partly Cloudy
1:54 AM 73.0 °F - 69.1 °F 87% 30.08 in 10.0 mi NE 15.0 mph - 0.00 in   Mostly Cloudy
2:54 AM 73.9 °F - 68.0 °F 82% 30.07 in 10.0 mi NE 12.7 mph - N/A   Mostly Cloudy
3:54 AM 72.0 °F - 66.9 °F 84% 30.07 in 10.0 mi NE 16.1 mph - N/A   Overcast
4:54 AM 72.0 °F - 68.0 °F 87% 30.07 in 10.0 mi NE 17.3 mph - N/A   Overcast
5:54 AM 73.0 °F - 66.9 °F 81% 30.09 in 10.0 mi ENE 13.8 mph 21.9 mph N/A   Mostly Cloudy
6:54 AM 75.0 °F - 64.9 °F 71% 30.10 in 10.0 mi NNE 16.1 mph - N/A   Overcast
7:54 AM 75.9 °F - 66.0 °F 71% 30.12 in 10.0 mi ENE 9.2 mph - 0.00 in   Mostly Cloudy
8:54 AM 80.1 °F 82.1 °F 66.0 °F 62% 30.12 in 10.0 mi East 18.4 mph 26.5 mph N/A   Mostly Cloudy
9:54 AM 81.0 °F 81.9 °F 62.1 °F 52% 30.12 in 10.0 mi East 15.0 mph 25.3 mph N/A   Scattered Clouds
10:54 AM 82.9 °F 84.0 °F 63.0 °F 51% 30.12 in 10.0 mi East 18.4 mph 27.6 mph N/A   Scattered Clouds
11:54 AM 82.9 °F 84.6 °F 64.9 °F 54% 30.10 in 10.0 mi East 19.6 mph 28.8 mph N/A   Scattered Clouds
1:16 PM 75.2 °F - 66.2 °F 73% 30.05 in 10.0 mi ENE 19.6 mph - N/A   Scattered Clouds
1:54 PM 86.0 °F 86.6 °F 62.6 °F 45% 30.04 in 10.0 mi ENE 17.3 mph 29.9 mph N/A   Scattered Clouds
2:54 PM 84.9 °F 87.1 °F 66.0 °F 53% 30.01 in 10.0 mi NE 24.2 mph 29.9 mph N/A   Clear
3:54 PM 84.0 °F 85.8 °F 64.9 °F 53% 30.00 in 10.0 mi ENE 23.0 mph 34.5 mph N/A   Scattered Clouds
4:54 PM 81.0 °F 83.3 °F 66.9 °F 62% 30.00 in 10.0 mi ENE 24.2 mph 35.7 mph N/A   Scattered Clouds
5:54 PM 78.1 °F - 64.9 °F 64% 30.01 in 10.0 mi ENE 18.4 mph 26.5 mph N/A   Scattered Clouds
6:54 PM 75.9 °F - 64.0 °F 67% 30.03 in 10.0 mi ENE 17.3 mph 23.0 mph N/A   Clear
7:54 PM 75.0 °F - 64.9 °F 71% 30.05 in 10.0 mi NE 17.3 mph - N/A   Clear
8:54 PM 75.0 °F - 64.0 °F 69% 30.06 in 10.0 mi NE 17.3 mph 23.0 mph N/A   Scattered Clouds
9:54 PM 75.0 °F - 64.9 °F 71% 30.07 in 10.0 mi NE 17.3 mph 23.0 mph N/A   Partly Cloudy
10:54 PM 75.0 °F - 66.9 °F 76% 30.07 in 10.0 mi NE 18.4 mph - N/A   Clear
11:54 PM 75.0 °F - 66.0 °F 73% 30.06 in 10.0 mi NE 12.7 mph 19.6 mph N/A   Partly Cloudy